User: anonymous   Login
Location: Unspecified
(0.0000°N, 0.0000°E)
Time: 08:02:30
(UTC+00:00)
Language:

GONETS M 06 - Orbit

View from above orbital plane
View from above orbital plane
View from above satellite
View from above satellite

Ground track
Ground track

The orbit data is extracted from the following two-line orbital elements,

1 39250U 13048B   24104.81907497  .00000010  00000-0  31007-5 0  9998
2 39250  82.4800 119.4226 0019106 174.4805 185.6489 12.42990066480253
Epoch (UTC): 13 April 2024 19:39:28
Eccentricity: 0.0019106
inclination: 82.4800°
perigee height: 1479 km
apogee height: 1509 km
right ascension of ascending node: 119.4226°
argument of perigee: 174.4805°
revolutions per day: 12.42990066
mean anomaly at epoch: 185.6489°
orbit number at epoch: 48025

The dashed part of the orbit path shows where the satellite is in the earth's shadow,  

DLR